This is the latest recevied weather packets stored in our database for station/object UR7D-12. If no packets are shown the sender has not sent any weather packets the latest 10 day(s).
| Time | Temp. | Humidity | Pressure | Rain* | Wind** | Luminosity | Snow |
|---|---|---|---|---|---|---|---|
| 1777575531 | 7.78° C | 43% | 999.2 hPa | 0 mm | - | - | - |
| 1777575232 | 7.78° C | 43% | 999.1 hPa | 0 mm | - | - | - |
| 1777574934 | 7.78° C | 43% | 998.8 hPa | 0 mm | - | - | - |
| 1777574331 | 8.33° C | 42% | 998.8 hPa | 0 mm | - | - | - |
| 1777574031 | 8.33° C | 42% | 998.7 hPa | 0 mm | - | - | - |
| 1777573731 | 8.33° C | 42% | 998.7 hPa | 0 mm | - | - | - |
| 1777573432 | 8.33° C | 41% | 998.6 hPa | 0 mm | - | - | - |
| 1777573130 | 8.33° C | 41% | 998.5 hPa | 0 mm | - | - | - |
| 1777572830 | 8.33° C | 41% | 998.4 hPa | 0 mm | - | - | - |
| 1777571629 | 8.89° C | 40% | 998.5 hPa | 0 mm | - | - | - |
| 1777571329 | 8.89° C | 40% | 998.4 hPa | 0 mm | - | - | - |
| 1777571028 | 9.44° C | 39% | 998.3 hPa | 0 mm | - | - | - |
| 1777569227 | 10.56° C | 38% | 998 hPa | 0 mm | - | - | - |
| 1777568926 | 10.56° C | 37% | 998 hPa | 0 mm | - | - | - |
| 1777568626 | 10.56° C | 36% | 997.8 hPa | 0 mm | - | - | - |
| 1777568025 | 11.11° C | 36% | 997.7 hPa | 0 mm | - | - | - |
| 1777567727 | 11.67° C | 35% | 997.6 hPa | 0 mm | - | - | - |
| 1777567125 | 11.67° C | 34% | 997.6 hPa | 0 mm | - | - | - |
| 1777566824 | 12.22° C | 34% | 997.4 hPa | 0 mm | - | - | - |
| 1777566524 | 12.22° C | 32% | 997.4 hPa | 0 mm | - | - | - |
| 1777566224 | 12.78° C | 32% | 997.4 hPa | 0 mm | - | - | - |
| 1777565924 | 12.78° C | 31% | 997.3 hPa | 0 mm | - | - | - |
| 1777565323 | 12.78° C | 30% | 997.2 hPa | 0 mm | - | - | - |
| 1777565022 | 12.78° C | 30% | 997.2 hPa | 0 mm | - | - | - |
| 1777564722 | 12.78° C | 30% | 997.2 hPa | 0 mm | - | - | - |
* Rain latest hour (hover to see other rain measurements)
** Current wind speed in m/s (hover to see current wind gust speed)